Location: Barruelo
(41.2448°N, 3.8231°W)
Time: 17:17:28
(UTC+00:00)

COSMO-SKYMED 1 - Pass Details

Date: 11 December 2025
Orbit: 578 x 580 km, 97.9° (Epoch: 15 January)

Event Time Altitude Azimuth Distance (km) Brightness Sun altitude
Exits shadow 17:51:57 17° 59° (ENE) 1,486 3.9 -12.0°
Maximum altitude 17:53:47 23° 95° (E) 1,254 3.6 -12.3°
Drops below altitude 10° 17:57:03 10° 148° (SSE) 1,886 4.9 -12.9°
Sets 17:59:33 0° 163° (SSE) 2,779 5.9 -13.3°
